Погода в Выгоничах

Россия / Брянская область     53°07′44″N   34°05′15″E
темп.,
°C
ветер,
м/с
пор.,
м/с
влажн.,
%
обл.,
%
осадки,
мм/ч
давл.,
гПа
погр.,
м
19 апреля, пн
пн1900:00+5св469440 0.1 1019278
03:00+3ссв369682 0.1 1019131
06:00+5ссв489585 0.0 1019370
09:00+7св5883100 0.1 1019751
12:00+7св5786100 0.1 1019698
15:00+9св6773100 0.2 10191058
18:00+7св6987100 0.1 1019672
21:00+5св51093100 0.1 1019761
20 апреля, вт
вт2000:00+5св4891100 0.1 1018778
03:00+5св5997100 0.2 1016505
06:00+4св5996100 0.0 1015411
09:00+5св5891100 0.1 1015395
12:00+7всв5887100 0.1 1013609
15:00+8св5989100 0.4 1011676
18:00+8св7882100 0.1 1009764
21:00+4ссв61096100 0.1 1008579
21 апреля, ср
ср2100:00+3с61196100 0.8 1005541
03:00+2ссз61197100 2.5 1003503
06:00+3сз61197100 0.3 1003600
09:00+3зсз61195100 0.3 1005797
12:00+7з797396 0.1 10061184
15:00+8зюз7967100 0.5 10081379
18:00+7зюз586798 0.2 1010830
21:00+5ююз3581100 0.3 1012107
22 апреля, чт
чт2200:00+5ююз5108890 0.1 1012311
03:00+4ю379499 0.7 1013164
06:00+3ююз339656 0.0 101461
09:00+9ю357825 0.0 1015372
12:00+13ююз56615 0.8 10141252
15:00+15юз585269 2.2 10141932
18:00+13юз476346 0.1 1015428
21:00+9ю3582100 0.3 101571
23 апреля, пт
пт2300:00+9ююз389299 0.6 1016204
03:00+7ю389437 0.7 1016169
06:00+6ю389583 0.0 1015172
09:00+11ю6127899 0.1 1014537
12:00+15ююз81158100 0.6 10131688
15:00+15юз71061100 2.1 10121670
18:00+6ссз6992100 5.8 1014453
21:00+6ссз3589100 7.5 1015367